South Lake Tahoe, CA

8:31 AM PDT on October 23, 2017 (GMT -0700)
Lake Tahoe

Weather History for KTVL - March, 2011

Change the Weather History Date:

Wednesday, March 9, 2011

  Actual Average Record
Temperature  
Mean Temperature 40 °F 34 °F  
Max Temperature 54 °F 48 °F 63 °F (1988)
Min Temperature 26 °F 22 °F 8 °F (1980)
Degree Days  
Heating Degree Days 25 31  
Month to date heating degree days 276 282  
Since 1 July heating degree days 5114 5519  
Cooling Degree Days 0 0  
Month to date cooling degree days 0 0  
Year to date cooling degree days 0 0  
Moisture  
Dew Point 19 °F    
Average Humidity 51    
Maximum Humidity 85    
Minimum Humidity 17    
Precipitation  
Precipitation 0.00 in - 2.20 in (1943)
Month to date precipitation 1.22  
Year to date precipitation 3.58  
Snow  
Snow 0.00 in - - ()
Month to date snowfall 3.0  
Snow Depth 8.00 in    
Sea Level Pressure  
Sea Level Pressure 30.28 in    
Wind  
Wind Speed 3 mph (SSW)    
Max Wind Speed 23 mph    
Max Gust Speed 58 mph    
Visibility 10 miles    
Events      
T = Trace of Precipitation, MM = Missing Value Source: NWS Daily Summary

Daily Weather History Graph

Daily Weather History Graph

Search for Another Location

Airport or City:

Trip Planner

Search our weather history database for the weather conditions in past years. The results will help you decide how hot, cold, wet, or windy it might be!

Date:

Astronomy

Mar. 09, 2011 Rise Set
Actual Time 6:20 AM PST 6:00 PM PST
Civil Twilight 5:54 AM PST 6:27 PM PST
Nautical Twilight 5:23 AM PST 6:58 PM PST
Astronomical Twilight 4:52 AM PST 7:29 PM PST
Moon 8:18 AM PST (3/9) 10:59 PM PST (3/9)
Length of Visible Light 12h 33m
Length of Day
11h 40m
Waxing Crescent, 21% of the Moon is Illuminated
Mar 9
Waxing Crescent
Mar 12
First Quarter
Mar 19
Full
Mar 26
Last Quarter
Apr 3
New

Hourly Weather History & Observations

Time (PST) Temp. Windchill Dew Point Humidity Pressure Visibility Wind Dir Wind Speed Gust Speed Precip Events Conditions
12:53 AM 27.0 °F - 23.0 °F 85% 30.29 in 10.0 mi Calm Calm - N/A   Clear
1:53 AM 28.0 °F - 23.0 °F 81% 30.29 in 10.0 mi Calm Calm - N/A   Clear
2:53 AM 28.9 °F - 23.0 °F 78% 30.26 in 10.0 mi Calm Calm - N/A   Partly Cloudy
3:53 AM 30.0 °F - 23.0 °F 75% 30.25 in 10.0 mi Calm Calm - N/A   Scattered Clouds
4:53 AM 28.0 °F - 21.0 °F 75% 30.30 in 10.0 mi Calm Calm - N/A   Clear
5:53 AM 27.0 °F - 21.9 °F 81% 30.32 in 10.0 mi Calm Calm - N/A   Clear
6:53 AM 27.0 °F - 21.9 °F 81% 30.33 in 10.0 mi Calm Calm - N/A   Clear
7:53 AM 30.9 °F - 23.0 °F 72% 30.32 in 10.0 mi Calm Calm - N/A   Clear
8:53 AM 37.0 °F 34.5 °F 24.1 °F 59% 30.33 in 10.0 mi NE 3.5 mph - N/A   Clear
9:53 AM 50.0 °F - 9.0 °F 19% 30.28 in 10.0 mi SSW 13.8 mph 23.0 mph N/A   Clear
10:53 AM 51.1 °F - 9.0 °F 18% 30.28 in 10.0 mi SSW 9.2 mph 18.4 mph N/A   Clear
11:53 AM 51.1 °F - 10.9 °F 20% 30.29 in 10.0 mi South 10.4 mph 21.9 mph N/A   Clear
12:53 PM 53.1 °F - 12.9 °F 20% 30.28 in 10.0 mi SSW 8.1 mph - N/A   Clear
1:53 PM 52.0 °F - 14.0 °F 22% 30.27 in 10.0 mi SSW 6.9 mph 16.1 mph N/A   Clear
2:53 PM 52.0 °F - 17.1 °F 25% 30.28 in 10.0 mi SSW 9.2 mph 19.6 mph N/A   Clear
3:53 PM 51.1 °F - 16.0 °F 25% 30.26 in 10.0 mi SW 9.2 mph 16.1 mph N/A   Clear
4:53 PM 46.9 °F - 21.9 °F 37% 30.27 in 10.0 mi SSW 5.8 mph - N/A   Clear
5:53 PM 45.0 °F 43.5 °F 21.0 °F 39% 30.27 in 10.0 mi SSW 3.5 mph - N/A   Clear
6:53 PM 37.9 °F - 21.9 °F 53% 30.29 in 10.0 mi Calm Calm - N/A   Clear
7:53 PM 34.0 °F - 23.0 °F 64% 30.29 in 10.0 mi Calm Calm - N/A   Clear
8:53 PM 32.0 °F - 21.0 °F 64% 30.28 in 10.0 mi Calm Calm - N/A   Clear
9:53 PM 30.0 °F - 21.0 °F 69% 30.25 in 10.0 mi Calm Calm - N/A   Clear
10:53 PM 30.0 °F - 18.0 °F 61% 30.23 in 10.0 mi Calm Calm - N/A   Clear
11:53 PM 27.0 °F - 19.0 °F 72% 30.23 in 10.0 mi Calm Calm - N/A   Clear